TimeCDT,TemperatureF,Dew PointF,Humidity,Sea Level PressureIn,VisibilityMPH,Wind Direction,Wind SpeedMPH,Gust SpeedMPH,PrecipitationIn,Events,Conditions,WindDirDegrees,DateUTC
12:34 AM,51.8,50.0,94,29.80,2.5,North,4.6,-,N/A,,Clear,350,2012-10-23 05:34:00
12:49 AM,51.8,50.0,94,29.80,1.8,North,5.8,-,N/A,,Partly Cloudy,350,2012-10-23 05:49:00
12:53 AM,51.8,50.0,94,29.79,1.8,North,3.5,-,N/A,,Partly Cloudy,350,2012-10-23 05:53:00
1:02 AM,51.8,48.2,88,29.79,2.5,North,3.5,-,N/A,,Partly Cloudy,10,2012-10-23 06:02:00
1:11 AM,51.8,50.0,94,29.79,3.0,Calm,Calm,-,N/A,,Scattered Clouds,0,2012-10-23 06:11:00
1:21 AM,51.8,50.0,94,29.78,2.5,Calm,Calm,-,N/A,,Mostly Cloudy,0,2012-10-23 06:21:00
1:33 AM,51.8,50.0,94,29.78,3.0,Calm,Calm,-,N/A,,Mostly Cloudy,0,2012-10-23 06:33:00
1:53 AM,52.0,50.0,93,29.77,2.5,Calm,Calm,-,N/A,,Scattered Clouds,0,2012-10-23 06:53:00
2:12 AM,53.6,51.8,94,29.77,3.0,Calm,Calm,-,N/A,,Mostly Cloudy,0,2012-10-23 07:12:00
2:30 AM,53.6,51.8,94,29.77,3.0,Calm,Calm,-,N/A,,Overcast,0,2012-10-23 07:30:00
2:53 AM,54.0,52.0,93,29.75,5.0,NNE,3.5,-,N/A,,Overcast,20,2012-10-23 07:53:00
3:53 AM,55.0,52.0,89,29.72,6.0,Calm,Calm,-,N/A,,Overcast,0,2012-10-23 08:53:00
4:53 AM,57.0,54.0,89,29.70,7.0,Calm,Calm,-,N/A,,Overcast,0,2012-10-23 09:53:00
5:53 AM,57.9,54.0,87,29.69,8.0,SSE,6.9,-,N/A,,Scattered Clouds,150,2012-10-23 10:53:00
6:21 AM,62.6,59.0,88,29.71,10.0,South,9.2,-,N/A,,Mostly Cloudy,170,2012-10-23 11:21:00
6:53 AM,64.0,59.0,84,29.69,10.0,South,9.2,18.4,N/A,,Overcast,180,2012-10-23 11:53:00
7:53 AM,64.0,60.1,87,29.70,10.0,South,9.2,-,N/A,,Overcast,180,2012-10-23 12:53:00
8:53 AM,66.0,61.0,84,29.70,9.0,South,11.5,-,N/A,,Overcast,190,2012-10-23 13:53:00
9:53 AM,69.1,61.0,75,29.71,10.0,South,15.0,24.2,N/A,,Partly Cloudy,180,2012-10-23 14:53:00
10:53 AM,73.0,61.0,66,29.70,10.0,South,13.8,21.9,N/A,,Clear,190,2012-10-23 15:53:00
11:53 AM,77.0,59.0,54,29.68,10.0,SW,17.3,25.3,N/A,,Clear,220,2012-10-23 16:53:00
12:53 PM,80.1,59.0,48,29.67,10.0,South,20.7,26.5,N/A,,Clear,190,2012-10-23 17:53:00
1:53 PM,82.0,59.0,45,29.64,10.0,South,18.4,26.5,N/A,,Clear,190,2012-10-23 18:53:00
2:53 PM,84.9,57.9,40,29.62,10.0,South,16.1,23.0,N/A,,Clear,190,2012-10-23 19:53:00
3:53 PM,86.0,57.0,37,29.62,10.0,SSW,17.3,26.5,N/A,,Clear,210,2012-10-23 20:53:00
4:53 PM,86.0,51.1,30,29.62,10.0,SSW,15.0,-,N/A,,Clear,200,2012-10-23 21:53:00
5:53 PM,84.2,48.2,29,29.66,10.0,SSW,9.2,-,N/A,,Clear,210,2012-10-23 22:53:00
6:53 PM,71.1,50.0,47,29.67,10.0,NW,8.1,-,N/A,,Clear,320,2012-10-23 23:53:00
7:53 PM,66.0,48.9,54,29.68,10.0,Calm,Calm,-,N/A,,Clear,0,2012-10-24 00:53:00
8:53 PM,64.0,48.9,58,29.68,10.0,SE,3.5,-,N/A,,Clear,130,2012-10-24 01:53:00
9:53 PM,66.0,50.0,56,29.69,10.0,Variable,4.6,-,N/A,,Clear,0,2012-10-24 02:53:00
10:53 PM,63.0,50.0,63,29.70,10.0,Calm,Calm,-,N/A,,Clear,0,2012-10-24 03:53:00
11:53 PM,73.0,64.9,76,29.68,10.0,South,11.5,20.7,N/A,,Clear,180,2012-10-24 04:53:00